This is the latest recevied weather packets stored in our database for station/object VK7TM-1. If no packets are shown the sender has not sent any weather packets the latest 10 day(s).
| Time | Temp. | Humidity | Pressure | Rain* | Wind** | Luminosity | Snow |
|---|---|---|---|---|---|---|---|
| 1778401122 | 13.33° C | 95% | 1033.4 hPa | 0 mm | - | 0 W/m² | - |
| 1778400831 | 13.33° C | 95% | 1033.3 hPa | 0 mm | - | 0 W/m² | - |
| 1778400541 | 13.33° C | 95% | 1033.4 hPa | 0 mm | - | 0 W/m² | - |
| 1778400272 | 13.33° C | 95% | 1033.4 hPa | 0 mm | - | 0 W/m² | - |
| 1778399961 | 13.33° C | 95% | 1033.4 hPa | 0 mm | - | 0 W/m² | - |
| 1778399671 | 13.33° C | 94% | 1033.5 hPa | 0 mm | - | 0 W/m² | - |
| 1778399381 | 13.33° C | 94% | 1033.3 hPa | 0 mm | - | 0 W/m² | - |
| 1778399091 | 13.33° C | 94% | 1033.1 hPa | 0 mm | - | 0 W/m² | - |
| 1778398801 | 13.33° C | 94% | 1033.3 hPa | 0 mm | - | 0 W/m² | - |
| 1778398511 | 13.89° C | 94% | 1033.2 hPa | 0 mm | - | 0 W/m² | - |
| 1778398221 | 13.89° C | 93% | 1033.3 hPa | 0 mm | - | 0 W/m² | - |
| 1778397931 | 13.89° C | 93% | 1033 hPa | 0 mm | - | 0 W/m² | - |
| 1778397641 | 13.89° C | 93% | 1032.8 hPa | 0 mm | - | 1 W/m² | - |
| 1778397351 | 13.89° C | 92% | 1032.9 hPa | 0 mm | - | 2 W/m² | - |
| 1778397061 | 13.89° C | 92% | 1032.8 hPa | 0 mm | - | 4 W/m² | - |
| 1778396771 | 13.89° C | 91% | 1032.8 hPa | 0 mm | - | 6 W/m² | - |
| 1778396481 | 13.89° C | 90% | 1032.8 hPa | 0 mm | - | 8 W/m² | - |
| 1778396191 | 13.89° C | 90% | 1033 hPa | 0 mm | - | 11 W/m² | - |
| 1778395901 | 13.89° C | 88% | 1032.9 hPa | 0 mm | - | 14 W/m² | - |
| 1778395611 | 14.44° C | 87% | 1032.9 hPa | 0 mm | - | 15 W/m² | - |
| 1778395321 | 14.44° C | 86% | 1032.8 hPa | 0 mm | - | 22 W/m² | - |
| 1778395031 | 14.44° C | 86% | 1032.7 hPa | 0 mm | - | 25 W/m² | - |
| 1778394741 | 14.44° C | 85% | 1032.9 hPa | 0 mm | - | 29 W/m² | - |
| 1778394451 | 14.44° C | 85% | 1032.8 hPa | 0 mm | - | 33 W/m² | - |
| 1778394161 | 14.44° C | 84% | 1032.8 hPa | 0 mm | - | 36 W/m² | - |
* Rain latest hour (hover to see other rain measurements)
** Current wind speed in m/s (hover to see current wind gust speed)